| time (UTC) | temp F | wind direction | speed knots | gust knots | rain 1hr in | rain 24hr in | rain mn in | humidity % | barometer mb |
| 20260505171342 | 69 | 114 | 3.5 | 7.8 | 0.00 | 0.00 | 0.00 | 43 | 1011.7 |
| 20260505170838 | 69 | 143 | 3.5 | 7.8 | 0.00 | 0.00 | 0.00 | 45 | 1011.6 |
| 20260505170335 | 69 | 111 | 5.2 | 7.0 | 0.00 | 0.00 | 0.00 | 43 | 1011.5 |
| 20260505165831 | 70 | 135 | 2.6 | 5.2 | 0.00 | 0.00 | 0.00 | 43 | 1011.7 |
| 20260505165327 | 71 | 132 | 4.3 | 7.0 | 0.00 | 0.00 | 0.00 | 41 | 1011.7 |
| 20260505164822 | 70 | 46 | 5.2 | 7.0 | 0.00 | 0.00 | 0.00 | 41 | 1011.5 |
| 20260505164319 | 70 | 98 | 6.1 | 7.8 | 0.00 | 0.00 | 0.00 | 42 | 1011.5 |
| 20260505163817 | 68 | 45 | 0.0 | 3.5 | 0.00 | 0.00 | 0.00 | 43 | 1011.5 |
| 20260505163316 | 68 | 100 | 3.5 | 7.0 | 0.00 | 0.00 | 0.00 | 44 | 1011.4 |
| 20260505162813 | 67 | 90 | 3.5 | 7.0 | 0.00 | 0.00 | 0.00 | 47 | 1011.6 |
| 20260505162309 | 67 | 91 | 0.0 | 5.2 | 0.00 | 0.00 | 0.00 | 46 | 1011.5 |
| 20260505161807 | 68 | 42 | 3.5 | 3.5 | 0.00 | 0.00 | 0.00 | 44 | 1011.6 |
| 20260505161304 | 67 | 80 | 5.2 | 6.1 | 0.00 | 0.00 | 0.00 | 45 | 1011.6 |
| 20260505160801 | 67 | 23 | 1.7 | 5.2 | 0.00 | 0.00 | 0.00 | 47 | 1011.6 |
| 20260505160259 | 64 | 56 | 2.6 | 5.2 | 0.00 | 0.00 | 0.00 | 50 | 1011.6 |
| 20260505153238 | 67 | 90 | 7.0 | 7.8 | 0.00 | 0.00 | 0.00 | 43 | 1011.2 |
| 20260505152736 | 66 | 90 | 4.3 | 7.0 | 0.00 | 0.00 | 0.00 | 43 | 1011.2 |
| 20260505152232 | 66 | 78 | 2.6 | 7.0 | 0.00 | 0.00 | 0.00 | 47 | 1011.1 |
| 20260505151731 | 67 | 55 | 7.0 | 7.8 | 0.00 | 0.00 | 0.00 | 47 | 1011.1 |
| 20260505151229 | 66 | 45 | 5.2 | 7.8 | 0.00 | 0.00 | 0.00 | 49 | 1011.1 |
| 20260505150726 | 66 | 8 | 3.5 | 7.8 | 0.00 | 0.00 | 0.00 | 48 | 1011.1 |
| 20260505150224 | 65 | 17 | 3.5 | 5.2 | 0.00 | 0.00 | 0.00 | 49 | 1011.2 |
| 20260505140154 | 63 | 79 | 0.0 | 0.9 | 0.00 | 0.00 | 0.00 | 52 | 1010.6 |
| 20260505130117 | 57 | 308 | 0.0 | 0.9 | 0.00 | 0.00 | 0.00 | 55 | 1009.5 |
| 20260505124607 | 57 | 27 | 0.0 | 0.0 | 0.00 | 0.00 | 0.00 | 56 | 1009.2 |
| 20260505124103 | 57 | 271 | 0.0 | 0.9 | 0.00 | 0.00 | 0.00 | 55 | 1009.1 |
| 20260505123559 | 57 | 300 | 0.9 | 1.7 | 0.00 | 0.00 | 0.00 | 55 | 1008.8 |
| 20260505123056 | 57 | 319 | 3.5 | 3.5 | 0.00 | 0.00 | 0.00 | 55 | 1009.0 |
| 20260505122553 | 56 | 301 | 2.6 | 3.5 | 0.00 | 0.00 | 0.00 | 56 | 1008.8 |
| 20260505122050 | 57 | 295 | 2.6 | 2.6 | 0.00 | 0.00 | 0.00 | 56 | 1008.7 |
| 20260505121546 | 57 | 306 | 2.6 | 2.6 | 0.00 | 0.00 | 0.00 | 55 | 1008.5 |
| 20260505121043 | 57 | 323 | 1.7 | 1.7 | 0.00 | 0.00 | 0.00 | 55 | 1008.6 |
| 20260505120540 | 57 | 324 | 0.0 | 0.9 | 0.00 | 0.00 | 0.00 | 55 | 1008.7 |
| 20260505120035 | 58 | 329 | 0.0 | 0.9 | 0.00 | 0.00 | 0.00 | 54 | 1008.8 |
| 20260505115530 | 58 | 353 | 0.9 | 0.9 | 0.00 | 0.00 | 0.00 | 53 | 1008.7 |
| 20260505115028 | 58 | 14 | 0.9 | 0.9 | 0.00 | 0.00 | 0.00 | 54 | 1008.5 |
| 20260505114524 | 58 | 336 | 0.0 | 2.6 | 0.00 | 0.00 | 0.00 | 53 | 1008.3 |
| 20260505114016 | 58 | 285 | 0.9 | 2.6 | 0.00 | 0.00 | 0.00 | 53 | 1008.4 |
| 20260505113512 | 59 | 286 | 1.7 | 3.5 | 0.00 | 0.00 | 0.00 | 51 | 1008.3 |
| 20260505113008 | 58 | 235 | 4.3 | 7.0 | 0.00 | 0.00 | 0.00 | 54 | 1008.5 |
| 20260505112504 | 55 | 204 | 3.5 | 5.2 | 0.00 | 0.00 | 0.00 | 58 | 1008.3 |
| 20260505112001 | 55 | 176 | 1.7 | 2.6 | 0.00 | 0.00 | 0.00 | 61 | 1008.3 |
| 20260505111455 | 58 | 151 | 2.6 | 2.6 | 0.00 | 0.00 | 0.00 | 53 | 1008.4 |
| 20260505110952 | 59 | 261 | 0.0 | 0.9 | 0.00 | 0.00 | 0.00 | 51 | 1007.9 |
| 20260505110449 | 59 | 302 | 0.9 | 2.6 | 0.00 | 0.00 | 0.00 | 51 | 1007.9 |
| 20260505101915 | 60 | 322 | 3.5 | 6.1 | 0.00 | 0.00 | 0.00 | 50 | 1007.8 |
| 20260505101414 | 59 | 334 | 1.7 | 6.1 | 0.00 | 0.00 | 0.00 | 51 | 1007.7 |
| 20260505100910 | 59 | 292 | 1.7 | 2.6 | 0.00 | 0.00 | 0.00 | 52 | 1007.8 |
| 20260505100407 | 59 | 279 | 2.6 | 2.6 | 0.00 | 0.00 | 0.00 | 51 | 1007.7 |
| 20260505095902 | 59 | 276 | 4.3 | 5.2 | 0.00 | 0.00 | 0.00 | 52 | 1007.7 |
| 20260505095400 | 58 | 280 | 3.5 | 3.5 | 0.00 | 0.00 | 0.00 | 53 | 1007.5 |
| 20260505094856 | 57 | 284 | 1.7 | 1.7 | 0.00 | 0.00 | 0.00 | 54 | 1007.6 |
| 20260505094353 | 56 | 15 | 0.0 | 0.9 | 0.00 | 0.00 | 0.00 | 56 | 1007.9 |
| 20260505093849 | 55 | 77 | 1.7 | 1.7 | 0.00 | 0.00 | 0.00 | 57 | 1007.6 |
| 20260505093346 | 56 | 115 | 1.7 | 2.6 | 0.00 | 0.00 | 0.00 | 58 | 1007.4 |
| 20260505092844 | 57 | 128 | 0.9 | 0.9 | 0.00 | 0.00 | 0.00 | 53 | 1007.6 |
| 20260505092342 | 58 | 300 | 0.0 | 0.9 | 0.00 | 0.00 | 0.00 | 52 | 1007.5 |
| 20260505091838 | 59 | 174 | 0.9 | 1.7 | 0.00 | 0.00 | 0.00 | 52 | 1007.5 |
| 20260505091337 | 58 | 213 | 0.9 | 1.7 | 0.00 | 0.00 | 0.00 | 53 | 1007.5 |
| 20260505090834 | 58 | 203 | 1.7 | 1.7 | 0.00 | 0.00 | 0.00 | 51 | 1007.4 |
| 20260505090333 | 58 | 74 | 0.9 | 1.7 | 0.00 | 0.00 | 0.00 | 51 | 1007.5 |
| 20260505085829 | 60 | 191 | 0.9 | 1.7 | 0.00 | 0.00 | 0.00 | 49 | 1007.2 |
| 20260505085327 | 61 | 263 | 0.0 | 0.9 | 0.00 | 0.00 | 0.00 | 45 | 1007.3 |
| 20260505084825 | 62 | 8 | 0.0 | 0.9 | 0.00 | 0.00 | 0.00 | 44 | 1007.3 |
| 20260505084323 | 62 | 332 | 1.7 | 2.6 | 0.00 | 0.00 | 0.00 | 44 | 1007.2 |
| 20260505083820 | 61 | 342 | 0.9 | 3.5 | 0.00 | 0.00 | 0.00 | 45 | 1007.2 |
| 20260505083317 | 60 | 330 | 2.6 | 3.5 | 0.00 | 0.00 | 0.00 | 47 | 1007.4 |
| 20260505082814 | 60 | 316 | 2.6 | 2.6 | 0.00 | 0.00 | 0.00 | 47 | 1007.2 |
| 20260505082310 | 61 | 332 | 2.6 | 3.5 | 0.00 | 0.00 | 0.00 | 46 | 1007.3 |
| 20260505081807 | 60 | 303 | 1.7 | 2.6 | 0.00 | 0.00 | 0.00 | 47 | 1007.1 |
| 20260505081304 | 59 | 40 | 1.7 | 1.7 | 0.00 | 0.00 | 0.00 | 48 | 1007.3 |
| 20260505080800 | 58 | 61 | 0.0 | 0.9 | 0.00 | 0.00 | 0.00 | 50 | 1007.4 |
| 20260505080256 | 59 | 354 | 0.0 | 0.0 | 0.00 | 0.00 | 0.00 | 48 | 1007.2 |
| 20260505075752 | 60 | 281 | 0.0 | 0.0 | 0.00 | 0.00 | 0.00 | 46 | 1007.5 |
| 20260505075249 | 60 | 272 | 0.9 | 1.7 | 0.00 | 0.00 | 0.00 | 45 | 1007.4 |
| 20260505074746 | 60 | 280 | 0.9 | 1.7 | 0.00 | 0.00 | 0.00 | 47 | 1007.5 |
| 20260505074243 | 60 | 278 | 1.7 | 2.6 | 0.00 | 0.00 | 0.00 | 47 | 1007.5 |
| 20260505073741 | 60 | 284 | 1.7 | 2.6 | 0.00 | 0.00 | 0.00 | 47 | 1007.6 |
| 20260505073238 | 60 | 276 | 1.7 | 1.7 | 0.00 | 0.00 | 0.00 | 47 | 1007.3 |
| 20260505072735 | 60 | 277 | 1.7 | 1.7 | 0.00 | 0.00 | 0.00 | 47 | 1007.4 |
| 20260505072231 | 60 | 285 | 1.7 | 2.6 | 0.00 | 0.00 | 0.00 | 47 | 1007.5 |
| 20260505071727 | 60 | 309 | 1.7 | 2.6 | 0.00 | 0.00 | 0.00 | 47 | 1007.3 |
| 20260505071224 | 61 | 290 | 4.3 | 5.2 | 0.00 | 0.00 | 0.00 | 46 | 1007.3 |
| 20260505070722 | 61 | 292 | 2.6 | 2.6 | 0.00 | 0.00 | 0.00 | 44 | 1007.2 |
| 20260505070218 | 61 | 304 | 2.6 | 3.5 | 0.00 | 0.00 | 0.00 | 46 | 1007.3 |
| 20260505065714 | 61 | 285 | 2.6 | 3.5 | 0.00 | 0.00 | 0.00 | 46 | 1007.2 |
| 20260505065211 | 61 | 291 | 2.6 | 2.6 | 0.00 | 0.00 | 0.00 | 45 | 1007.0 |
| 20260505064708 | 61 | 322 | 0.9 | 1.7 | 0.00 | 0.00 | 0.00 | 45 | 1007.3 |
| 20260505064206 | 61 | 319 | 1.7 | 2.6 | 0.00 | 0.00 | 0.00 | 46 | 1007.1 |
| 20260505063703 | 61 | 338 | 1.7 | 2.6 | 0.00 | 0.00 | 0.00 | 45 | 1007.1 |
| 20260505063159 | 61 | 281 | 4.3 | 7.0 | 0.00 | 0.00 | 0.00 | 46 | 1007.1 |
| 20260505062655 | 60 | 280 | 5.2 | 6.1 | 0.00 | 0.00 | 0.00 | 47 | 1007.2 |
| 20260505062153 | 60 | 296 | 3.5 | 5.2 | 0.00 | 0.00 | 0.00 | 48 | 1007.1 |
| 20260505061650 | 60 | 290 | 3.5 | 3.5 | 0.00 | 0.00 | 0.00 | 48 | 1007.2 |
| 20260505061148 | 60 | 263 | 2.6 | 2.6 | 0.00 | 0.00 | 0.00 | 47 | 1007.1 |
| 20260505060645 | 60 | 255 | 1.7 | 1.7 | 0.00 | 0.00 | 0.00 | 47 | 1007.1 |
| 20260505060142 | 60 | 254 | 0.0 | 0.0 | 0.00 | 0.00 | 0.00 | 47 | 1007.1 |
| 20260505055637 | 61 | 256 | 0.9 | 0.9 | 0.00 | 0.00 | 0.00 | 47 | 1007.0 |
| 20260505055134 | 61 | 276 | 0.0 | 0.9 | 0.00 | 0.00 | 0.00 | 45 | 1006.9 |
| 20260505054631 | 62 | 303 | 0.0 | 0.0 | 0.00 | 0.00 | 0.00 | 45 | 1007.0 |
| 20260505054129 | 63 | 319 | 0.0 | 0.0 | 0.00 | 0.00 | 0.00 | 44 | 1007.1 |
| 20260505053626 | 63 | 285 | 0.0 | 0.9 | 0.00 | 0.00 | 0.00 | 43 | 1007.0 |
| 20260505053122 | 64 | 304 | 0.0 | 0.9 | 0.00 | 0.00 | 0.00 | 43 | 1006.5 |
| 20260505052620 | 64 | 302 | 1.7 | 2.6 | 0.00 | 0.00 | 0.00 | 42 | 1006.8 |
| 20260505052117 | 64 | 296 | 0.9 | 2.6 | 0.00 | 0.00 | 0.00 | 42 | 1006.8 |
| 20260505051614 | 64 | 277 | 0.0 | 0.9 | 0.00 | 0.00 | 0.00 | 42 | 1006.9 |
| 20260505051112 | 65 | 315 | 0.0 | 0.0 | 0.00 | 0.00 | 0.00 | 41 | 1006.9 |
| 20260505050610 | 66 | 300 | 0.0 | 0.0 | 0.00 | 0.00 | 0.00 | 40 | 1006.8 |
| 20260505050108 | 67 | 279 | 1.7 | 1.7 | 0.00 | 0.00 | 0.00 | 39 | 1006.6 |
| 20260505041537 | 68 | 314 | 3.5 | 3.5 | 0.00 | 0.00 | 0.00 | 39 | 1006.0 |
| 20260505041035 | 68 | 284 | 3.5 | 3.5 | 0.00 | 0.00 | 0.00 | 39 | 1006.2 |
| 20260505040532 | 68 | 304 | 2.6 | 3.5 | 0.00 | 0.00 | 0.00 | 38 | 1006.0 |
| 20260505040029 | 69 | 320 | 2.6 | 3.5 | 0.00 | 0.00 | 0.00 | 38 | 1006.0 |
| 20260505035525 | 69 | 323 | 1.7 | 2.6 | 0.00 | 0.00 | 0.00 | 38 | 1006.0 |
| 20260505035022 | 70 | 325 | 2.6 | 3.5 | 0.00 | 0.00 | 0.00 | 37 | 1005.9 |
| 20260505034518 | 70 | 302 | 3.5 | 5.2 | 0.00 | 0.00 | 0.00 | 37 | 1005.9 |
| 20260505034015 | 70 | 347 | 2.6 | 3.5 | 0.00 | 0.00 | 0.00 | 37 | 1005.8 |
| 20260505033512 | 71 | 319 | 2.6 | 5.2 | 0.00 | 0.00 | 0.00 | 35 | 1005.7 |
| 20260505033011 | 71 | 305 | 3.5 | 5.2 | 0.00 | 0.00 | 0.00 | 35 | 1005.4 |
| 20260505032508 | 71 | 298 | 4.3 | 6.1 | 0.00 | 0.00 | 0.00 | 34 | 1005.6 |
| 20260505032004 | 72 | 283 | 4.3 | 7.8 | 0.00 | 0.00 | 0.00 | 34 | 1005.3 |
| 20260505031501 | 72 | 307 | 5.2 | 7.0 | 0.00 | 0.00 | 0.00 | 34 | 1005.4 |
| 20260505030958 | 72 | 320 | 3.5 | 8.7 | 0.00 | 0.00 | 0.00 | 34 | 1005.3 |
| 20260505030454 | 73 | 307 | 4.3 | 7.0 | 0.00 | 0.00 | 0.00 | 33 | 1005.1 |
| 20260505025949 | 73 | 292 | 3.5 | 7.8 | 0.00 | 0.00 | 0.00 | 33 | 1005.0 |
| 20260505025447 | 73 | 317 | 4.3 | 5.2 | 0.00 | 0.00 | 0.00 | 32 | 1004.9 |
| 20260505024945 | 74 | 308 | 4.3 | 6.1 | 0.00 | 0.00 | 0.00 | 32 | 1005.1 |
| 20260505024442 | 74 | 299 | 4.3 | 7.0 | 0.00 | 0.00 | 0.00 | 32 | 1005.0 |
| 20260505023940 | 74 | 302 | 7.0 | 8.7 | 0.00 | 0.00 | 0.00 | 32 | 1005.1 |
| 20260505023436 | 74 | 282 | 5.2 | 7.8 | 0.00 | 0.00 | 0.00 | 31 | 1004.8 |
| 20260505022934 | 75 | 322 | 5.2 | 9.6 | 0.00 | 0.00 | 0.00 | 31 | 1005.0 |
| 20260505022432 | 75 | 268 | 6.1 | 11.3 | 0.00 | 0.00 | 0.00 | 31 | 1004.9 |
| 20260505021928 | 76 | 313 | 5.2 | 7.8 | 0.00 | 0.00 | 0.00 | 31 | 1005.0 |
| 20260505021425 | 76 | 329 | 7.0 | 8.7 | 0.00 | 0.00 | 0.00 | 31 | 1005.0 |
| 20260505020920 | 76 | 322 | 3.5 | 7.0 | 0.00 | 0.00 | 0.00 | 31 | 1004.8 |
| 20260505020416 | 78 | 290 | 5.2 | 7.0 | 0.00 | 0.00 | 0.00 | 30 | 1004.9 |
| 20260505015913 | 78 | 293 | 5.2 | 7.0 | 0.00 | 0.00 | 0.00 | 29 | 1004.8 |
| 20260505015410 | 79 | 303 | 3.5 | 5.2 | 0.00 | 0.00 | 0.00 | 29 | 1004.7 |
| 20260505014908 | 80 | 318 | 3.5 | 6.1 | 0.00 | 0.00 | 0.00 | 27 | 1004.8 |
| 20260505014404 | 80 | 311 | 5.2 | 6.1 | 0.00 | 0.00 | 0.00 | 28 | 1004.7 |
| 20260505013901 | 81 | 329 | 4.3 | 5.2 | 0.00 | 0.00 | 0.00 | 26 | 1005.0 |
| 20260505013358 | 81 | 333 | 3.5 | 6.1 | 0.00 | 0.00 | 0.00 | 26 | 1004.9 |
| 20260505012856 | 81 | 287 | 5.2 | 7.8 | 0.00 | 0.00 | 0.00 | 25 | 1005.0 |
| 20260505012354 | 81 | 320 | 4.3 | 7.8 | 0.00 | 0.00 | 0.00 | 25 | 1004.9 |
| 20260505011850 | 80 | 324 | 4.3 | 9.6 | 0.00 | 0.00 | 0.00 | 25 | 1004.9 |
| 20260505011347 | 81 | 318 | 3.5 | 11.3 | 0.00 | 0.00 | 0.00 | 25 | 1004.9 |
| 20260505010843 | 81 | 283 | 7.8 | 9.6 | 0.00 | 0.00 | 0.00 | 23 | 1005.0 |
| 20260505010338 | 82 | 314 | 8.7 | 12.2 | 0.00 | 0.00 | 0.00 | 23 | 1004.9 |
| 20260505005835 | 82 | 279 | 5.2 | 7.8 | 0.00 | 0.00 | 0.00 | 25 | 1005.3 |
| 20260505005332 | 82 | 329 | 5.2 | 8.7 | 0.00 | 0.00 | 0.00 | 24 | 1005.3 |
| 20260505004830 | 82 | 347 | 6.1 | 13.0 | 0.00 | 0.00 | 0.00 | 24 | 1005.3 |
| 20260505004326 | 82 | 297 | 5.2 | 12.2 | 0.00 | 0.00 | 0.00 | 24 | 1005.3 |
| 20260505003823 | 83 | 306 | 5.2 | 9.6 | 0.00 | 0.00 | 0.00 | 24 | 1005.4 |
| 20260505003320 | 83 | 338 | 4.3 | 7.0 | 0.00 | 0.00 | 0.00 | 23 | 1005.5 |
| 20260505002816 | 83 | 323 | 1.7 | 6.1 | 0.00 | 0.00 | 0.00 | 24 | 1005.3 |
| 20260505002314 | 83 | 303 | 12.2 | 15.6 | 0.00 | 0.00 | 0.00 | 24 | 1005.4 |
| 20260505001812 | 83 | 357 | 5.2 | 12.2 | 0.00 | 0.00 | 0.00 | 23 | 1005.4 |
| 20260505001308 | 83 | 348 | 7.8 | 13.0 | 0.00 | 0.00 | 0.00 | 23 | 1005.4 |
| 20260505000806 | 83 | 302 | 6.1 | 7.8 | 0.00 | 0.00 | 0.00 | 23 | 1005.5 |
| 20260505000303 | 84 | 316 | 9.6 | 13.9 | 0.00 | 0.00 | 0.00 | 23 | 1005.4 |
| 20260504235800 | 83 | 318 | 5.2 | 12.2 | 0.00 | 0.00 | 0.00 | 23 | 1005.3 |
| 20260504235256 | 83 | 307 | 8.7 | 13.0 | 0.00 | 0.00 | 0.00 | 23 | 1005.5 |
| 20260504234753 | 83 | 300 | 7.8 | 11.3 | 0.00 | 0.00 | 0.00 | 23 | 1005.5 |
| 20260504234251 | 83 | 292 | 5.2 | 9.6 | 0.00 | 0.00 | 0.00 | 24 | 1005.5 |
| 20260504233747 | 83 | 324 | 7.0 | 12.2 | 0.00 | 0.00 | 0.00 | 24 | 1005.7 |
| 20260504233243 | 83 | 323 | 7.8 | 13.9 | 0.00 | 0.00 | 0.00 | 24 | 1005.6 |
| 20260504232740 | 83 | 311 | 6.1 | 13.9 | 0.00 | 0.00 | 0.00 | 25 | 1005.6 |
| 20260504232237 | 83 | 291 | 4.3 | 6.1 | 0.00 | 0.00 | 0.00 | 24 | 1005.6 |
| 20260504231734 | 84 | 294 | 5.2 | 12.2 | 0.00 | 0.00 | 0.00 | 23 | 1005.8 |
| 20260504231230 | 84 | 323 | 5.2 | 6.1 | 0.00 | 0.00 | 0.00 | 24 | 1005.8 |
| 20260504230726 | 84 | 335 | 7.0 | 7.8 | 0.00 | 0.00 | 0.00 | 24 | 1005.7 |
| 20260504230225 | 83 | 327 | 3.5 | 7.0 | 0.00 | 0.00 | 0.00 | 23 | 1005.9 |
| 20260504225724 | 83 | 340 | 6.1 | 11.3 | 0.00 | 0.00 | 0.00 | 24 | 1006.1 |
| 20260504225219 | 84 | 289 | 7.8 | 9.6 | 0.00 | 0.00 | 0.00 | 24 | 1006.0 |
| 20260504224716 | 83 | 300 | 1.7 | 7.8 | 0.00 | 0.00 | 0.00 | 23 | 1006.1 |
| 20260504224214 | 82 | 313 | 3.5 | 6.1 | 0.00 | 0.00 | 0.00 | 23 | 1006.1 |
| 20260504223710 | 81 | 24 | 6.1 | 8.7 | 0.00 | 0.00 | 0.00 | 24 | 1006.2 |
| 20260504223205 | 83 | 20 | 2.6 | 11.3 | 0.00 | 0.00 | 0.00 | 24 | 1006.3 |
| 20260504222703 | 82 | 4 | 3.5 | 13.0 | 0.00 | 0.00 | 0.00 | 26 | 1006.1 |
| 20260504222159 | 82 | 23 | 10.4 | 13.0 | 0.00 | 0.00 | 0.00 | 24 | 1006.3 |
| 20260504221657 | 84 | 339 | 6.1 | 7.8 | 0.00 | 0.00 | 0.00 | 22 | 1006.8 |
| 20260504221154 | 85 | 339 | 5.2 | 8.7 | 0.00 | 0.00 | 0.00 | 23 | 1006.8 |
| 20260504220650 | 83 | 339 | 3.5 | 5.2 | 0.00 | 0.00 | 0.00 | 22 | 1006.6 |
| 20260504220148 | 83 | 231 | 1.7 | 8.7 | 0.00 | 0.00 | 0.00 | 22 | 1006.8 |
| 20260504215644 | 84 | 8 | 3.5 | 8.7 | 0.00 | 0.00 | 0.00 | 23 | 1006.8 |
| 20260504215142 | 83 | 12 | 3.5 | 6.1 | 0.00 | 0.00 | 0.00 | 24 | 1006.8 |
| 20260504214637 | 83 | 328 | 6.1 | 11.3 | 0.00 | 0.00 | 0.00 | 23 | 1006.8 |
| 20260504214134 | 83 | 281 | 3.5 | 6.1 | 0.00 | 0.00 | 0.00 | 24 | 1007.1 |
| 20260504213630 | 83 | 322 | 3.5 | 7.0 | 0.00 | 0.00 | 0.00 | 23 | 1007.0 |
| 20260504213127 | 83 | 303 | 3.5 | 5.2 | 0.00 | 0.00 | 0.00 | 22 | 1007.0 |
| 20260504212624 | 83 | 271 | 3.5 | 6.1 | 0.00 | 0.00 | 0.00 | 23 | 1007.1 |
| 20260504212121 | 82 | 294 | 3.5 | 7.0 | 0.00 | 0.00 | 0.00 | 24 | 1007.1 |
| 20260504211618 | 83 | 317 | 4.3 | 6.1 | 0.00 | 0.00 | 0.00 | 22 | 1007.3 |
| 20260504211114 | 83 | 321 | 2.6 | 5.2 | 0.00 | 0.00 | 0.00 | 22 | 1007.4 |
| 20260504210612 | 82 | 293 | 2.6 | 7.8 | 0.00 | 0.00 | 0.00 | 23 | 1007.3 |
| 20260504210108 | 82 | 334 | 5.2 | 7.8 | 0.00 | 0.00 | 0.00 | 22 | 1007.6 |
| 20260504205606 | 82 | 260 | 2.6 | 5.2 | 0.00 | 0.00 | 0.00 | 21 | 1007.5 |
| 20260504205104 | 82 | 200 | 3.5 | 5.2 | 0.00 | 0.00 | 0.00 | 23 | 1007.6 |
| 20260504204601 | 81 | 282 | 2.6 | 7.0 | 0.00 | 0.00 | 0.00 | 22 | 1007.8 |
| 20260504204100 | 80 | 320 | 3.5 | 6.1 | 0.00 | 0.00 | 0.00 | 25 | 1007.8 |
| 20260504203558 | 81 | 352 | 3.5 | 5.2 | 0.00 | 0.00 | 0.00 | 23 | 1007.7 |
| 20260504203056 | 81 | 290 | 5.2 | 7.8 | 0.00 | 0.00 | 0.00 | 23 | 1007.9 |
| 20260504202550 | 81 | 298 | 7.0 | 8.7 | 0.00 | 0.00 | 0.00 | 23 | 1007.9 |
| 20260504202048 | 81 | 280 | 6.1 | 7.0 | 0.00 | 0.00 | 0.00 | 24 | 1007.8 |
| 20260504201545 | 81 | 285 | 5.2 | 7.8 | 0.00 | 0.00 | 0.00 | 23 | 1007.9 |
| 20260504201043 | 81 | 316 | 5.2 | 8.7 | 0.00 | 0.00 | 0.00 | 25 | 1008.0 |
| 20260504200538 | 80 | 298 | 4.3 | 9.6 | 0.00 | 0.00 | 0.00 | 23 | 1007.9 |
| 20260504200036 | 80 | 274 | 6.1 | 11.3 | 0.00 | 0.00 | 0.00 | 23 | 1007.9 |
| 20260504195532 | 80 | 241 | 3.5 | 7.0 | 0.00 | 0.00 | 0.00 | 24 | 1008.0 |
| 20260504195029 | 80 | 327 | 5.2 | 8.7 | 0.00 | 0.00 | 0.00 | 25 | 1008.2 |
| 20260504194525 | 80 | 9 | 3.5 | 8.7 | 0.00 | 0.00 | 0.00 | 23 | 1008.2 |
| 20260504194020 | 81 | 319 | 5.2 | 7.8 | 0.00 | 0.00 | 0.00 | 25 | 1008.2 |
| 20260504193517 | 81 | 303 | 0.0 | 5.2 | 0.00 | 0.00 | 0.00 | 25 | 1008.4 |
| 20260504193017 | 80 | 301 | 6.1 | 7.8 | 0.00 | 0.00 | 0.00 | 25 | 1008.4 |
| 20260504192514 | 80 | 326 | 3.5 | 6.1 | 0.00 | 0.00 | 0.00 | 26 | 1008.7 |
| 20260504192012 | 79 | 315 | 4.3 | 7.8 | 0.00 | 0.00 | 0.00 | 27 | 1008.3 |
| 20260504191509 | 80 | 358 | 5.2 | 6.1 | 0.00 | 0.00 | 0.00 | 24 | 1008.7 |
| 20260504191005 | 79 | 306 | 5.2 | 8.7 | 0.00 | 0.00 | 0.00 | 26 | 1008.7 |
| 20260504190501 | 78 | 315 | 1.7 | 7.8 | 0.00 | 0.00 | 0.00 | 26 | 1008.8 |
| 20260504185957 | 78 | 315 | 5.2 | 11.3 | 0.00 | 0.00 | 0.00 | 26 | 1008.8 |
| 20260504185455 | 78 | 345 | 7.8 | 11.3 | 0.00 | 0.00 | 0.00 | 27 | 1008.8 |
| 20260504184951 | 78 | 282 | 7.8 | 11.3 | 0.00 | 0.00 | 0.00 | 26 | 1008.9 |
| 20260504184447 | 78 | 301 | 7.8 | 7.8 | 0.00 | 0.00 | 0.00 | 26 | 1008.9 |
| 20260504183942 | 77 | 305 | 5.2 | 7.8 | 0.00 | 0.00 | 0.00 | 27 | 1009.0 |
| 20260504183440 | 78 | 307 | 5.2 | 8.7 | 0.00 | 0.00 | 0.00 | 27 | 1008.9 |
| 20260504182938 | 78 | 288 | 4.3 | 5.2 | 0.00 | 0.00 | 0.00 | 26 | 1009.0 |
| 20260504182434 | 78 | 315 | 4.3 | 8.7 | 0.00 | 0.00 | 0.00 | 28 | 1009.2 |
| 20260504181932 | 77 | 301 | 6.1 | 11.3 | 0.00 | 0.00 | 0.00 | 27 | 1009.0 |
| 20260504181429 | 78 | 310 | 7.0 | 8.7 | 0.00 | 0.00 | 0.00 | 26 | 1009.4 |
| 20260504180928 | 78 | 11 | 2.6 | 7.0 | 0.00 | 0.00 | 0.00 | 26 | 1009.1 |
| 20260504180426 | 78 | 278 | 3.5 | 9.6 | 0.00 | 0.00 | 0.00 | 28 | 1009.2 |
| 20260504175924 | 77 | 21 | 1.7 | 3.5 | 0.00 | 0.00 | 0.00 | 27 | 1009.2 |
| 20260504175421 | 77 | 320 | 6.1 | 7.8 | 0.00 | 0.00 | 0.00 | 27 | 1009.1 |
| 20260504174918 | 77 | 333 | 3.5 | 6.1 | 0.00 | 0.00 | 0.00 | 31 | 1009.3 |
| 20260504174416 | 77 | 327 | 2.6 | 5.2 | 0.00 | 0.00 | 0.00 | 27 | 1009.2 |
| 20260504173913 | 76 | 293 | 7.0 | 7.8 | 0.00 | 0.00 | 0.00 | 28 | 1009.3 |
| 20260504173409 | 74 | 275 | 0.9 | 3.5 | 0.00 | 0.00 | 0.00 | 31 | 1009.3 |
| 20260504172907 | 74 | 264 | 6.1 | 7.0 | 0.00 | 0.00 | 0.00 | 28 | 1009.3 |
| 20260504172403 | 75 | 317 | 1.7 | 6.1 | 0.00 | 0.00 | 0.00 | 31 | 1009.5 |
| 20260504171859 | 74 | 311 | 0.0 | 2.6 | 0.00 | 0.00 | 0.00 | 31 | 1009.7 |